User: anonymous
Location: CNYAC Observatory
(43.2150°N, 74.9500°W)
Time: 19:39:12
(UTC-04:00)
Language:

Cosmos 1300 Rocket - Orbit

View from above orbital plane
View from above orbital plane
View from above satellite
View from above satellite

Ground track
Ground track

The orbit data is extracted from the following two-line orbital elements,

1 12786U 81082B   14212.66233303  .00000300  00000-0  32970-4 0  9391
2 12786 082.4865 238.4888 0019316 123.9707 016.1911 14.84137292778810
Epoch (UTC): 31 July 2014 15:53:45
Eccentricity: 0.0019316
inclination: 82.4865°
perigee height: 603 km
apogee height: 630 km
right ascension of ascending node: 238.4888°
argument of perigee: 123.9707°
revolutions per day: 14.84137292
mean anomaly at epoch: 16.1911°
orbit number at epoch: 77881

The dashed part of the orbit path shows where the satellite is in the earth's shadow,  

DLR